K0GDI Weather Reports


Display with metric or nautical units.
time (UTC)temp
F
wind
direction
speed
MPH
gust
MPH
rain 1hr
in
rain 24hr
in
rain mn
in
humidity
%
barometer
mb
20260906143123 83 110 3.0 6.0 0.00 0.00 0.00 71 1013.8
20260906142415 83 86 2.0 4.0 0.00 0.00 0.00 71 1013.8
20260906142103 83 86 2.0 4.0 0.00 0.00 0.00 71 1013.8
20260906141324 82 69 1.0 4.0 0.00 0.00 0.00 70 1013.8
20260906141047 82 69 1.0 4.0 0.00 0.00 0.00 70 1013.8
20260906140358 81 116 2.0 5.0 0.00 0.00 0.00 74 1013.8
20260906140030 81 116 2.0 5.0 0.00 0.00 0.00 74 1013.8
20260906134113 80 65 2.0 5.0 0.00 0.00 0.00 77 1013.8
20260906134018 80 65 2.0 5.0 0.00 0.00 0.00 77 1013.8
20260906133252 80 78 2.0 4.0 0.00 0.00 0.00 78 1013.8
20260906133002 80 78 2.0 4.0 0.00 0.00 0.00 78 1013.8
20260906132036 80 34 2.0 3.0 0.00 0.00 0.00 77 1013.8
20260906131946 80 34 2.0 3.0 0.00 0.00 0.00 77 1013.8
20260906123841 78 159 1.0 2.0 0.00 0.00 0.00 83 1013.8
20260906122043 76 277 1.0 1.0 0.00 0.00 0.00 87 1013.8
20260906121808 76 277 1.0 1.0 0.00 0.00 0.00 87 1013.8
20260906113706 75 114 1.0 2.0 0.00 0.00 0.00 91 1013.8
20260906112733 75 133 1.0 1.0 0.00 0.00 0.00 91 1013.8
20260906112650 75 133 1.0 1.0 0.00 0.00 0.00 91 1013.8
20260906111706 75 238 1.0 1.0 0.00 0.00 0.00 90 1013.8
20260906111633 75 238 1.0 1.0 0.00 0.00 0.00 90 1013.8
20260906105649 75 272 1.0 1.0 0.00 0.00 0.00 90 1013.8
20260906105559 75 272 1.0 1.0 0.00 0.00 0.00 90 1013.8
20260906104740 75 30 1.0 2.0 0.00 0.00 0.00 90 1013.8
20260906104543 75 30 1.0 2.0 0.00 0.00 0.00 90 1013.8
20260906103859 75 6 1.0 2.0 0.00 0.00 0.00 90 1013.8
20260906103653 75 6 1.0 2.0 0.00 0.00 0.00 90 1013.8
20260906103528 75 6 1.0 2.0 0.00 0.00 0.00 90 1013.8
20260906102512 75 106 1.0 1.0 0.00 0.00 0.00 91 1013.8
20260906101455 75 263 1.0 1.0 0.00 0.00 0.00 89 1013.8
20260906100438 76 307 1.0 2.0 0.00 0.00 0.00 89 1013.8
20260906091316 75 284 1.0 2.0 0.00 0.00 0.00 87 1013.8
20260906085035 75 238 1.0 1.0 0.00 0.00 0.00 87 1013.6
20260906084022 75 315 1.0 1.0 0.00 0.00 0.00 86 1013.6
20260906083006 75 275 1.0 1.0 0.00 0.00 0.00 85 1013.6
20260906081950 75 277 1.0 1.0 0.00 0.00 0.00 86 1013.6
20260906073858 74 287 1.0 2.0 0.00 0.00 0.00 86 1013.3
20260906072845 74 167 1.0 1.0 0.00 0.00 0.00 86 1013.3
20260906070809 74 188 1.0 1.0 0.00 0.00 0.00 86 1013.3
20260906065753 74 189 0.0 1.0 0.00 0.00 0.00 86 1013.3
20260906064736 74 178 1.0 1.0 0.00 0.00 0.00 85 1013.3
20260906063720 74 205 1.0 1.0 0.00 0.00 0.00 84 1013.3
20260906062703 75 179 0.0 1.0 0.00 0.00 0.00 84 1013.3
20260906061646 75 296 1.0 1.0 0.00 0.00 0.00 83 1013.3
20260906055616 75 304 1.0 1.0 0.00 0.00 0.00 83 1013.3
20260906053532 75 171 0.0 1.0 0.00 0.00 0.00 83 1013.3
20260906052515 76 270 1.0 1.0 0.00 0.00 0.00 82 1013.3
20260906051459 76 259 1.0 1.0 0.00 0.00 0.00 81 1013.3
20260906045427 76 207 1.0 1.0 0.00 0.00 0.00 80 1013.3
20260906044410 76 334 1.0 1.0 0.00 0.00 0.00 79 1013.3
20260906043354 76 232 1.0 1.0 0.00 0.00 0.00 79 1013.3
20260906042338 77 205 1.0 1.0 0.00 0.00 0.00 80 1013.3
20260906041322 77 134 1.0 1.0 0.00 0.00 0.00 79 1013.3
20260906040305 77 222 1.0 1.0 0.00 0.00 0.00 80 1013.3
20260906035249 77 244 1.0 1.0 0.00 0.00 0.00 79 1013.3
20260906033215 77 147 1.0 1.0 0.00 0.00 0.00 79 1013.3
20260906032157 78 208 1.0 1.0 0.00 0.00 0.00 79 1013.3
20260906031141 78 59 1.0 1.0 0.00 0.00 0.00 78 1013.3
20260906030125 78 304 1.0 1.0 0.00 0.00 0.00 76 1013.3
20260906025105 79 252 1.0 2.0 0.00 0.00 0.00 76 1013.3
20260906024048 79 165 1.0 2.0 0.00 0.00 0.00 76 1013.3
20260906023029 79 270 1.0 1.0 0.00 0.00 0.00 73 1013.3
20260906022009 79 132 1.0 1.0 0.00 0.00 0.00 74 1013.3
20260906020950 79 140 1.0 1.0 0.00 0.00 0.00 74 1013.3
20260906015934 80 156 1.0 2.0 0.00 0.00 0.00 73 1013.3
20260906014912 81 185 0.0 1.0 0.00 0.00 0.00 70 1013.3
20260906013853 81 186 1.0 1.0 0.00 0.00 0.00 69 1013.3
20260906012836 82 178 1.0 1.0 0.00 0.00 0.00 68 1013.3
20260906011818 83 235 1.0 1.0 0.00 0.00 0.00 67 1013.3
20260906010802 83 301 1.0 2.0 0.00 0.00 0.00 65 1013.3
20260906005746 84 331 1.0 2.0 0.00 0.00 0.00 64 1013.3
20260906004730 85 289 1.0 2.0 0.00 0.00 0.00 62 1013.3
20260906003713 86 195 1.0 1.0 0.00 0.00 0.00 60 1013.3
20260906002652 87 319 1.0 3.0 0.00 0.00 0.00 58 1013.3
20260906001635 88 28 1.0 2.0 0.00 0.00 0.00 56 1013.3
20260906000616 89 287 1.0 2.0 0.00 0.00 0.00 54 1013.3
20260905235558 90 258 1.0 2.0 0.00 0.00 0.00 51 1013.3
20260905234541 91 203 1.0 2.0 0.00 0.00 0.00 49 1013.3
20260905233525 91 106 1.0 3.0 0.00 0.00 0.00 48 1013.3
20260905232509 92 189 1.0 5.0 0.00 0.00 0.00 48 1013.3
20260905231453 93 213 1.0 2.0 0.00 0.00 0.00 47 1013.3
20260905225423 93 144 5.0 10.0 0.00 0.00 0.00 43 1013.3
20260905224406 94 147 5.0 12.0 0.00 0.00 0.00 42 1013.3
20260905223350 96 130 4.0 12.0 0.00 0.00 0.00 41 1013.3
20260905222334 98 145 1.0 3.0 0.00 0.00 0.00 35 1013.3
20260905221318 98 332 1.0 3.0 0.00 0.00 0.00 37 1013.3
20260905220259 99 316 1.0 3.0 0.00 0.00 0.00 38 1013.3
20260905215243 100 296 1.0 4.0 0.00 0.00 0.00 37 1013.3
20260905214226 101 254 1.0 5.0 0.00 0.00 0.00 35 1013.3
20260905213209 102 343 1.0 5.0 0.00 0.00 0.00 33 1013.3
20260905212153 102 259 1.0 5.0 0.00 0.00 0.00 33 1013.3
20260905211136 103 326 1.0 4.0 0.00 0.00 0.00 33 1013.3
20260905210119 103 319 1.0 4.0 0.00 0.00 0.00 34 1013.3
20260905205102 104 290 1.0 5.0 0.00 0.00 0.00 32 1013.3
20260905204043 104 331 1.0 4.0 0.00 0.00 0.00 31 1013.3
20260905203027 104 339 1.0 3.0 0.00 0.00 0.00 31 1013.3
20260905202011 104 213 2.0 5.0 0.00 0.00 0.00 32 1013.3
20260905195941 103 329 2.0 6.0 0.00 0.00 0.00 32 1013.3
20260905194925 103 22 2.0 6.0 0.00 0.00 0.00 33 1013.3
20260905193908 104 38 2.0 4.0 0.00 0.00 0.00 31 1013.3
20260905192851 104 233 2.0 4.0 0.00 0.00 0.00 31 1013.3
20260905191833 102 41 2.0 5.0 0.00 0.00 0.00 32 1013.3
20260905190817 102 314 1.0 5.0 0.00 0.00 0.00 35 1013.3
20260905185801 103 346 1.0 6.0 0.00 0.00 0.00 33 1013.3
20260905184744 104 352 2.0 5.0 0.00 0.00 0.00 30 1013.3
20260905183728 103 175 2.0 6.0 0.00 0.00 0.00 35 1013.3
20260905182712 104 252 2.0 4.0 0.00 0.00 0.00 32 1013.3
20260905181656 103 263 2.0 5.0 0.00 0.00 0.00 34 1013.3
20260905180640 103 160 1.0 4.0 0.00 0.00 0.00 34 1013.3
20260905175624 103 218 2.0 5.0 0.00 0.00 0.00 37 1013.3
20260905174607 103 209 2.0 6.0 0.00 0.00 0.00 34 1013.3
20260905173550 101 56 2.0 5.0 0.00 0.00 0.00 37 1013.3
20260905172534 102 232 2.0 6.0 0.00 0.00 0.00 38 1013.3
20260905171512 101 209 1.0 3.0 0.00 0.00 0.00 39 1013.3
20260905170456 101 216 2.0 4.0 0.00 0.00 0.00 40 1013.3
20260905165440 101 289 1.0 4.0 0.00 0.00 0.00 38 1013.3
20260905164424 100 237 2.0 5.0 0.00 0.00 0.00 40 1013.3
20260905163407 100 236 2.0 4.0 0.00 0.00 0.00 41 1013.3
20260905162352 100 211 1.0 4.0 0.00 0.00 0.00 40 1013.3
20260905161336 99 225 1.0 3.0 0.00 0.00 0.00 42 1013.3
20260905160319 98 281 2.0 7.0 0.00 0.00 0.00 43 1013.3
20260905155306 99 279 1.0 4.0 0.00 0.00 0.00 43 1013.3
20260905154247 98 275 1.0 4.0 0.00 0.00 0.00 44 1013.3
20260905153229 97 232 1.0 4.0 0.00 0.00 0.00 44 1013.3
20260905151157 95 7 1.0 3.0 0.00 0.00 0.00 48 1013.3
20260905150140 94 327 2.0 6.0 0.00 0.00 0.00 48 1013.3
20260905144110 93 307 2.0 5.0 0.00 0.00 0.00 51 1013.3